Theta_e
297 297 297 298 297 297 298 299 300 300 301 301 304 308 310 310 312 313 313 311 307 307 312 311 310 312 311 310 310 310 310 309 310 310 307 307 310 311 311 311 313 312 310 311 314 318 319 319 321 323 321 320 318 318 320 318 320 326 328 325 324 326 332 331 327 328 327 321 318 319 317 319 322 321 322 326 325 328 336 334 330 330 327 325 329 327 323
297 297 297 298 297 297 299 300 301 301 301 302 306 310 310 309 311 312 312 311 308 310 314 313 314 315 313 311 312 311 311 310 310 311 309 308 310 312 311 311 311 311 311 311 312 317 320 318 318 322 322 320 318 318 320 320 321 325 326 324 323 323 325 329 332 334 330 325 327 327 320 321 324 322 322 324 324 329 332 328 331 331 324 326 331 326 322
297 296 297 297 297 298 300 301 302 302 301 302 307 309 309 310 312 312 312 311 308 310 315 315 316 318 317 316 317 313 311 311 310 310 310 308 310 313 312 311 310 311 312 312 312 315 318 319 319 321 322 319 318 319 320 320 321 324 323 321 323 325 326 333 338 334 326 324 329 329 323 322 323 323 322 323 325 329 325 324 333 332 322 324 328 324 321
297 296 296 297 297 299 300 301 302 303 301 302 307 309 310 312 314 313 313 311 309 311 313 314 316 319 317 316 317 315 313 311 309 309 310 309 310 311 311 309 311 314 313 313 314 314 315 318 319 319 320 319 317 318 320 320 320 322 320 319 325 328 326 329 332 328 325 324 324 324 323 323 323 321 321 321 322 325 326 329 334 330 323 323 323 322 321
297 296 296 297 299 300 301 301 303 304 302 303 307 309 310 312 314 313 313 313 312 312 313 313 315 317 315 314 315 315 313 312 310 309 310 309 310 312 311 309 311 314 315 316 315 314 314 316 316 317 318 318 316 316 318 321 320 320 319 317 327 333 328 325 324 321 320 321 320 319 320 320 320 319 318 318 319 322 326 328 326 323 326 326 321 319 319
296 296 297 298 299 300 301 302 304 304 302 303 306 307 308 312 313 312 312 314 315 315 314 313 314 315 315 315 316 316 314 312 310 309 310 310 310 312 312 310 310 311 314 318 317 316 318 317 316 318 317 316 318 317 317 319 318 319 320 318 325 332 327 323 322 319 317 318 318 318 318 317 317 317 317 316 317 318 321 322 320 321 325 324 319 316 315
296 296 297 299 300 301 301 303 304 303 302 303 305 306 308 312 313 312 312 314 314 314 314 313 314 317 317 315 315 316 315 312 309 310 315 315 311 311 312 311 311 312 315 321 320 320 322 318 314 316 316 317 320 319 318 318 316 319 325 321 321 326 324 320 320 319 318 317 316 316 316 315 315 315 315 315 314 315 316 318 318 317 317 316 314 313 312
296 297 298 300 300 301 302 303 304 304 305 305 305 307 310 313 313 312 313 314 312 311 312 313 315 317 317 315 313 314 315 315 311 311 316 317 312 310 312 311 310 311 313 316 317 318 321 318 314 315 318 317 317 318 318 319 317 319 325 324 321 321 320 319 319 319 318 316 315 315 314 314 314 314 314 314 313 313 314 315 316 315 314 312 311 311 310
296 298 299 300 301 301 303 304 304 304 306 306 305 309 311 313 313 313 314 317 315 313 312 313 315 315 316 316 313 313 315 312 310 310 310 311 311 311 312 311 310 310 310 312 313 313 315 315 311 313 315 313 312 314 315 318 320 319 321 324 324 323 322 321 320 319 317 315 314 313 313 314 314 314 313 313 313 313 312 312 313 314 314 313 312 312 309
297 299 300 300 301 302 303 305 305 305 306 305 306 311 312 312 313 314 314 316 316 312 311 315 317 314 314 315 312 312 313 309 311 313 309 307 310 310 310 311 311 312 311 311 310 309 309 311 309 310 311 309 309 311 312 315 319 319 320 323 323 326 327 323 321 321 317 315 315 315 317 319 317 314 313 313 312 311 311 310 311 312 312 313 313 311 308
298 300 300 301 301 301 302 304 307 308 307 304 305 310 312 312 313 313 313 316 316 311 310 317 319 312 310 311 310 311 312 310 312 315 312 308 309 309 309 310 313 313 310 308 309 309 309 310 309 309 310 310 311 311 310 311 312 314 320 323 321 325 328 324 322 323 319 315 316 318 320 320 315 312 312 311 310 310 310 310 310 310 310 310 309 308 306
299 300 301 301 301 301 302 303 306 308 307 306 307 311 313 313 314 314 313 316 317 314 312 315 315 310 307 308 309 310 311 311 310 311 311 310 309 309 308 308 312 312 308 307 309 309 309 309 309 310 309 309 311 311 310 311 311 310 314 319 321 325 325 322 322 323 319 316 317 319 318 315 312 310 310 309 308 308 308 308 308 309 309 308 307 306 305
300 300 301 301 301 301 302 302 304 306 307 307 309 312 313 312 313 313 312 314 317 315 313 311 309 308 307 306 306 307 307 308 309 308 309 309 308 308 307 307 309 309 307 308 308 308 311 313 313 313 312 311 312 312 310 310 310 310 311 314 320 325 323 321 321 319 318 317 318 317 315 312 311 310 309 309 309 309 309 309 307 307 308 308 307 306 305
300 300 301 301 300 301 301 302 303 305 306 308 309 311 312 310 310 310 309 313 317 313 309 310 310 309 309 306 306 308 307 307 308 308 308 309 307 307 307 307 308 307 308 309 309 310 314 318 318 317 317 317 316 313 313 311 310 311 311 311 316 322 324 322 319 315 315 316 315 314 313 312 311 310 309 309 310 309 310 309 307 306 307 308 307 305 304
300 301 301 301 300 300 301 302 303 304 306 309 311 311 309 306 306 308 307 311 316 313 307 309 310 309 308 307 308 311 311 310 310 308 307 308 307 307 307 307 306 308 308 308 311 316 320 321 321 319 317 317 315 312 313 315 312 310 309 309 313 318 321 323 320 314 312 313 313 313 314 314 311 309 308 307 308 308 309 309 307 306 306 306 307 306 305
300 301 301 301 300 300 301 301 303 305 308 311 311 309 307 305 307 309 308 310 314 313 307 307 307 306 306 306 308 310 311 313 314 312 310 310 307 306 308 307 307 308 308 308 312 319 322 319 319 318 314 313 312 311 312 315 315 312 309 310 314 316 318 323 322 315 312 314 313 313 313 312 310 308 307 307 307 308 309 310 309 305 304 304 305 305 305
301 301 301 300 300 300 300 301 303 307 309 309 308 306 306 307 308 310 310 310 309 308 306 306 306 306 306 307 307 307 308 311 313 313 314 312 307 306 308 308 308 309 309 312 317 321 321 317 316 316 313 311 312 313 312 313 314 314 312 313 316 317 318 321 320 315 313 313 311 310 311 309 307 306 307 307 307 308 310 313 310 304 302 302 302 302 303
301 301 300 300 300 299 300 301 304 308 308 307 306 305 306 307 308 309 310 309 306 305 305 306 306 306 307 308 308 307 308 310 312 314 317 313 306 306 308 308 310 310 309 316 322 323 320 316 316 316 313 310 312 313 312 312 312 311 311 312 313 314 314 316 315 313 311 310 309 308 308 307 306 306 307 307 307 309 311 311 307 302 300 301 300 300 301
301 301 300 300 300 299 300 302 305 307 307 306 306 306 306 307 307 307 306 306 305 305 305 306 306 306 307 308 308 309 309 310 311 318 322 315 307 307 310 309 311 311 310 316 320 319 317 314 313 315 314 312 311 312 310 310 310 310 310 312 312 311 311 312 313 312 310 309 308 308 308 307 305 306 306 307 309 311 309 305 302 301 300 300 299 299 300
301 301 300 300 300 300 301 304 306 306 306 306 306 306 306 306 306 306 305 305 304 304 304 305 305 306 307 307 308 309 310 310 310 314 319 315 310 312 316 315 313 311 313 318 317 315 316 315 311 313 314 312 310 311 309 309 309 308 309 309 308 308 310 310 310 309 310 309 308 309 309 306 304 306 307 306 308 307 303 301 301 300 300 299 299 299 299
301 301 300 300 301 301 302 304 305 305 306 306 306 305 305 306 306 305 305 305 304 304 303 304 305 305 306 306 308 308 310 311 310 311 313 312 311 315 318 316 314 311 313 317 315 311 313 315 311 311 312 311 310 312 311 309 309 308 308 308 306 306 308 309 308 307 308 309 308 308 307 304 303 305 306 304 304 303 301 301 301 300 300 300 300 299 299
301 301 300 301 301 301 303 304 305 306 306 306 306 305 305 305 304 304 303 304 303 303 303 303 304 305 305 305 307 308 309 310 310 310 311 311 310 313 314 311 312 311 310 313 314 312 313 315 313 312 312 311 311 311 310 309 309 308 308 308 307 306 306 307 306 305 306 306 306 305 303 302 303 303 303 302 302 301 301 301 301 300 300 300 300 300 300
301 301 300 300 301 301 303 305 306 306 306 305 305 304 304 304 303 303 303 303 303 303 303 304 304 304 305 305 307 308 309 310 311 310 311 311 310 311 311 310 311 311 309 311 313 313 314 313 312 311 311 310 310 310 309 309 309 309 308 308 307 306 306 306 306 306 305 305 304 303 303 302 302 301 301 301 301 301 301 301 301 301 300 300 300 300 300
301 300 300 300 300 302 304 305 306 306 306 305 304 304 304 304 304 304 304 303 303 303 303 303 304 304 304 305 306 308 309 309 310 310 310 310 310 311 311 310 310 310 309 310 310 311 312 310 308 310 310 308 309 310 309 308 309 308 308 308 308 307 306 306 306 306 305 305 304 304 303 302 302 301 301 301 301 301 301 301 301 301 300 300 301 300 300
301 301 300 300 300 302 304 306 306 306 306 305 305 304 305 305 305 305 304 303 303 303 303 303 303 304 304 305 306 307 308 308 309 310 309 309 309 310 310 309 309 310 310 310 309 308 309 307 308 310 309 307 308 310 309 309 309 308 308 309 309 307 306 306 305 305 305 305 304 303 303 302 302 301 301 301 301 301 301 301 301 301 301 301 301 300 300
301 300 300 300 300 302 304 305 306 307 307 307 307 306 306 306 306 305 305 303 302 303 304 304 304 304 304 305 305 307 308 308 308 308 308 308 308 309 308 308 308 309 308 308 308 307 306 306 308 311 309 307 308 309 308 308 308 308 308 308 307 306 306 306 305 305 305 305 304 303 302 302 302 301 301 301 301 301 301 301 301 301 300 300 300 300 300
301 300 300 300 300 303 305 305 306 307 307 307 307 307 307 307 306 305 303 303 304 304 304 304 303 304 304 305 305 306 308 308 307 307 308 308 308 308 307 307 307 307 307 307 307 306 306 307 308 308 308 306 306 307 306 306 307 308 308 306 305 305 305 305 305 305 305 305 304 303 303 302 302 301 301 300 300 301 301 300 300 300 300 300 300 300 299
301 300 300 300 302 304 305 305 306 307 306 306 307 307 307 307 307 305 303 303 304 304 304 303 303 304 304 305 305 306 306 306 306 307 307 307 307 307 307 307 307 307 307 307 307 306 306 307 307 306 306 306 306 306 305 306 307 308 307 305 304 305 305 305 305 305 305 304 304 303 303 302 301 301 301 300 301 301 301 301 301 301 301 301 301 300 300
300 300 300 300 303 304 305 305 306 306 306 306 307 306 306 306 306 306 304 304 304 303 303 304 305 304 304 305 305 306 306 306 306 306 306 306 306 307 307 306 307 307 307 307 307 306 306 307 307 306 306 306 306 307 307 307 307 306 305 304 305 304 304 305 305 304 303 304 304 303 303 303 302 302 301 301 301 301 301 301 301 301 301 301 301 301 301
299 300 300 301 303 305 305 304 305 305 306 306 306 306 306 305 305 305 304 303 304 303 304 306 306 305 304 305 306 306 305 306 306 305 306 306 306 306 307 306 306 306 306 306 306 306 306 306 306 306 306 305 306 308 307 305 305 304 304 304 305 304 304 304 304 303 304 304 304 303 303 303 303 302 302 302 302 302 302 302 302 302 302 302 302 302 301
298 299 300 301 302 304 303 303 304 305 305 305 305 305 305 304 305 305 305 304 304 304 304 305 305 304 304 305 306 306 305 305 305 305 305 305 305 306 306 306 306 306 305 305 305 305 305 305 304 305 305 304 305 307 307 305 305 304 303 303 304 304 303 303 303 303 303 303 304 304 303 303 303 303 303 303 302 302 302 302 302 302 302 301 301 301 301
298 299 300 300 301 301 301 302 304 304 304 305 306 306 305 304 304 305 306 305 304 304 304 304 304 303 303 304 305 305 305 305 304 304 305 305 305 305 305 305 305 305 305 305 305 304 304 304 304 304 305 304 305 306 306 306 305 303 302 303 304 303 303 302 302 302 302 302 303 303 302 303 303 303 302 303 302 302 302 302 301 301 301 301 301 301 301
297 298 299 300 300 300 300 302 304 304 303 305 306 305 304 304 304 305 306 305 304 304 303 304 304 304 303 304 305 305 305 305 305 304 304 305 305 305 305 304 304 305 305 305 304 304 304 304 303 304 304 303 304 306 306 304 303 303 303 303 303 303 303 302 302 301 301 301 301 301 301 301 301 301 301 301 302 302 301 301 301 301 302 302 301 301 301
297 297 298 299 299 300 301 303 305 305 304 304 304 303 303 304 305 305 306 305 304 304 303 303 305 305 304 304 306 306 305 305 305 304 304 304 304 304 305 304 304 304 304 304 304 304 304 303 304 304 304 303 304 305 304 303 302 303 303 303 303 303 302 302 302 302 301 301 301 300 300 300 300 300 300 300 301 301 301 301 301 302 302 302 302 301 301
296 297 297 298 298 299 301 303 306 306 305 303 302 302 304 304 305 305 306 305 305 305 303 303 306 308 307 306 307 306 305 305 305 305 305 305 305 304 304 304 304 304 304 304 303 303 303 303 304 304 303 304 305 305 303 302 302 303 303 303 303 303 302 302 302 302 301 301 301 300 300 300 300 300 300 300 300 300 300 300 300 301 301 301 301 300 300
296 297 298 299 299 300 302 304 306 306 305 304 302 302 304 304 304 305 306 305 305 305 303 302 306 310 310 308 306 305 305 305 305 305 305 305 305 304 304 305 305 304 303 303 303 303 303 303 304 305 305 305 304 303 303 303 303 302 303 303 302 302 302 302 302 301 301 301 301 300 300 300 300 300 300 300 300 300 300 300 300 300 300 300 300 299 300
296 298 301 303 303 304 305 305 305 305 304 303 302 302 304 304 304 305 305 305 305 305 304 304 306 308 308 306 304 304 305 306 305 304 304 305 304 304 304 306 306 305 304 304 305 304 303 304 307 307 306 305 304 303 303 304 303 303 303 303 302 302 302 302 302 301 301 301 301 301 300 300 300 300 300 300 300 300 300 300 300 300 300 300 300 299 299
297 300 303 304 304 304 304 304 304 303 302 301 302 303 304 304 304 304 304 304 305 304 304 305 306 305 305 305 305 305 305 305 304 304 305 304 303 303 304 304 305 306 306 305 304 303 303 305 309 309 304 301 302 303 303 303 303 303 303 302 302 301 302 302 302 302 301 301 301 301 300 300 301 300 300 300 300 300 300 300 300 300 300 300 300 299 299
298 301 304 304 304 304 303 303 302 301 301 302 303 303 303 303 304 304 303 303 303 304 304 305 305 304 304 305 306 306 304 303 305 306 306 304 304 304 305 304 304 307 308 305 303 304 304 305 308 309 304 300 301 303 302 302 303 302 302 302 301 301 302 302 301 301 301 301 301 301 301 301 301 300 300 300 300 300 300 300 300 300 300 300 299 299 299
302 304 304 304 303 302 301 301 301 302 303 303 303 303 303 303 303 304 303 303 304 304 305 305 304 304 304 306 306 306 305 305 307 308 307 305 304 304 305 304 304 307 308 305 303 305 306 306 306 307 304 301 301 302 302 302 303 302 302 302 302 302 302 302 301 301 301 301 301 301 300 300 300 300 300 300 300 300 300 300 300 300 300 299 299 299 299
305 305 304 302 301 300 300 302 302 303 303 303 303 303 303 303 302 303 304 305 306 305 304 305 305 304 305 306 306 305 305 305 305 305 304 304 303 304 305 304 302 304 306 304 303 306 309 306 304 305 303 301 301 302 302 302 302 302 302 302 302 301 302 301 301 301 301 301 300 300 300 300 300 300 300 300 300 300 299 300 300 300 300 300 300 300 300
305 304 303 302 300 300 302 303 303 302 302 302 302 303 303 303 303 303 303 305 305 305 305 305 305 304 305 305 304 304 304 304 303 303 304 304 302 303 305 304 303 304 305 303 303 306 307 304 302 303 302 301 301 302 302 301 302 302 302 301 301 301 301 300 300 300 300 300 300 300 300 300 300 300 300 300 300 300 299 300 300 300 300 300 300 299 300
303 302 302 301 301 301 303 303 302 301 302 303 304 303 303 303 303 303 303 303 304 304 305 305 304 304 305 304 303 303 304 303 302 303 305 304 302 303 305 305 304 304 303 302 304 305 305 304 304 303 302 301 301 302 302 301 302 302 301 301 301 300 300 300 300 300 300 300 300 300 300 300 300 300 300 300 299 299 299 300 300 300 300 300 300 300 300
302 302 302 301 301 301 302 302 301 300 301 303 303 303 303 303 304 305 306 305 305 304 304 304 304 305 305 304 303 303 303 303 303 303 302 302 303 304 305 305 304 303 301 303 304 304 305 306 305 302 301 301 301 301 301 302 301 301 301 301 300 300 300 300 300 300 300 300 300 300 300 300 300 300 300 299 299 300 300 300 300 300 300 300 300 300 300
302 302 301 301 300 300 301 301 300 300 301 302 304 306 308 308 308 310 309 306 304 305 305 304 304 304 303 303 304 303 303 303 303 302 301 301 303 304 304 304 304 303 303 304 304 304 305 306 303 300 300 302 301 301 302 302 301 300 301 300 300 300 300 300 301 300 300 300 300 300 300 300 300 300 300 300 300 300 300 299 300 300 300 300 300 299 300
302 301 300 300 300 300 300 300 301 302 302 302 303 305 307 306 306 307 306 303 304 305 305 304 304 304 303 303 303 303 302 302 302 302 303 304 304 303 302 302 302 304 304 304 304 305 307 305 301 300 301 302 301 301 302 301 301 301 301 301 301 301 301 301 301 300 300 300 300 300 300 300 300 300 300 300 299 299 299 299 300 300 299 300 299 299 299
302 300 300 300 301 300 300 300 301 302 302 301 301 302 303 302 302 303 303 303 304 305 305 304 304 304 303 303 303 302 302 303 303 302 303 305 305 303 302 302 303 304 303 302 304 307 307 302 300 301 302 302 301 302 302 301 301 301 301 300 301 301 300 300 300 300 300 300 300 300 300 300 300 300 300 299 299 299 300 300 300 299 299 299 299 299 299
301 300 300 300 301 301 300 301 302 301 300 301 301 301 301 301 302 302 304 304 304 305 304 303 303 303 302 303 303 302 301 302 303 303 303 304 303 303 303 304 303 303 305 308 311 311 306 301 300 302 302 301 302 302 301 301 301 301 300 301 301 301 300 300 300 300 300 300 300 300 300 300 300 299 299 299 299 300 300 300 299 299 299 299 299 299 299
302 301 301 300 300 300 300 300 300 300 300 301 301 301 302 302 303 303 304 305 305 305 304 303 304 304 303 303 304 304 303 303 304 304 304 304 304 303 303 303 302 303 307 310 310 306 302 300 301 302 302 302 302 301 301 301 301 301 300 301 301 300 300 300 300 300 300 300 300 300 300 300 300 299 299 299 299 299 299 299 299 299 299 299 299 299 300
302 302 300 300 301 302 301 300 301 302 302 301 301 302 304 304 304 304 305 304 304 304 304 303 303 304 303 303 304 305 303 302 303 304 304 304 304 303 302 303 305 307 309 307 303 301 301 302 302 302 301 302 302 301 301 301 301 301 301 301 301 300 301 300 300 300 300 300 300 300 300 299 299 299 299 299 299 298 298 298 299 299 299 299 299 299 299
301 301 300 300 301 303 302 300 302 304 304 303 303 304 305 304 304 304 304 304 304 304 304 303 303 304 304 304 304 303 301 301 303 303 304 305 304 303 304 308 310 311 308 303 301 301 302 302 301 302 302 302 301 301 301 301 301 301 301 301 300 300 301 300 300 300 300 300 300 300 299 299 299 299 299 299 299 298 298 298 299 299 299 299 299 299 299
300 300 300 300 300 301 301 300 301 301 302 303 304 305 304 304 304 304 304 304 304 304 303 302 303 305 306 304 303 302 302 302 302 303 304 304 302 303 307 311 310 306 302 301 301 302 302 301 302 302 302 301 301 301 301 301 301 301 301 301 301 300 300 300 300 300 300 300 300 300 299 299 299 299 298 298 298 299 299 299 299 299 299 299 299 299 299
Wind_Speed
9 8 8 7 7 7 6 6 5 3 1 2 5 5 4 2 2 9 17 12 8 9 3 2 2 1 4 7 11 12 8 3 6 8 6 4 2 3 4 4 5 5 4 5 5 5 4 4 3 3 3 3 3 4 8 8 6 5 1 3 2 2 3 4 1 2 2 4 6 8 8 7 8 5 4 3 2 2 4 4 3 2 2 2 4 2 1
9 7 6 6 7 6 5 5 4 3 2 4 5 5 5 2 1 8 16 15 9 5 2 1 1 3 5 6 10 12 8 1 6 6 5 5 3 3 4 3 4 4 5 7 7 5 4 4 3 3 2 3 6 11 14 10 5 3 1 2 1 2 2 3 3 3 3 4 4 5 7 5 4 3 5 6 5 4 3 1 3 3 1 3 5 2 2
10 8 7 6 6 5 5 5 4 2 3 5 5 5 5 2 1 4 11 15 12 5 2 2 1 3 4 4 6 7 3 5 9 7 5 7 4 3 2 3 5 4 6 8 9 8 5 2 2 3 2 3 7 13 15 11 7 5 4 2 2 2 2 3 4 3 2 1 1 2 2 3 2 3 7 7 7 5 2 1 3 2 0 3 4 3 4
10 9 6 6 5 6 6 5 4 1 4 7 7 7 4 2 2 2 5 11 11 8 8 4 2 3 2 3 4 2 1 4 11 10 6 8 7 3 2 5 6 5 7 7 7 9 7 4 4 3 3 2 4 11 16 13 10 10 11 8 3 4 3 3 6 5 4 4 3 3 2 3 3 5 9 8 6 5 4 3 2 3 3 3 2 5 7
11 8 6 6 6 6 6 5 4 2 6 9 9 8 4 2 1 1 2 4 5 8 10 6 4 4 1 2 3 4 2 2 7 7 4 7 9 5 4 7 6 4 5 6 4 6 7 7 6 3 4 3 3 10 14 12 11 11 10 9 4 4 4 3 6 9 7 7 6 5 7 7 7 8 10 10 8 8 8 4 1 2 4 2 1 6 8
10 6 5 6 6 8 8 6 4 4 9 10 9 5 3 2 2 2 2 1 2 3 6 6 4 6 4 2 2 4 4 3 3 3 3 7 9 6 5 9 8 4 4 5 3 4 6 6 5 3 4 3 3 7 7 7 10 10 6 7 5 5 2 2 6 11 12 12 12 11 12 10 10 11 10 10 10 10 9 5 3 3 4 4 7 10 8
9 5 5 6 7 9 8 6 4 8 11 11 8 3 1 2 3 3 3 2 3 3 5 4 2 4 4 1 3 3 3 4 1 1 3 5 8 8 5 8 12 10 7 7 4 3 4 3 3 2 3 3 3 3 3 4 7 7 4 4 3 3 2 3 9 11 11 11 12 12 13 12 11 11 10 9 11 11 9 8 9 10 9 8 11 13 9
7 5 6 7 8 9 8 6 7 12 12 11 9 4 3 5 3 4 5 4 4 4 6 3 1 3 1 1 2 1 3 4 3 4 5 3 5 8 7 8 12 12 11 10 6 2 5 5 3 2 3 4 3 1 1 1 5 6 3 3 4 4 2 2 7 8 6 7 11 12 13 14 13 11 9 8 9 10 9 7 7 9 10 9 11 11 7
5 5 6 7 8 9 8 7 10 12 11 11 9 3 4 5 4 4 3 3 3 4 4 0 2 3 2 1 1 2 3 5 5 6 9 9 7 5 7 9 10 10 12 11 6 4 5 6 6 6 5 4 3 1 2 4 2 3 3 2 4 4 3 2 5 6 2 4 10 12 12 14 13 10 10 9 8 8 7 6 6 4 6 8 8 6 3
4 6 7 7 8 9 8 8 10 10 12 12 8 1 3 3 3 3 2 1 3 2 1 1 3 1 1 1 3 4 5 6 7 6 8 12 14 12 10 9 7 7 9 8 5 5 6 6 8 8 6 8 10 9 8 8 5 2 2 3 3 3 4 3 3 5 2 4 7 8 7 7 6 5 5 4 5 7 7 7 9 7 3 4 3 3 4
5 7 7 7 8 9 9 7 9 11 13 10 5 1 3 4 5 4 3 1 4 3 1 2 3 2 3 7 8 8 9 9 8 6 2 7 13 16 15 11 8 5 5 4 4 5 6 6 7 8 10 16 20 21 21 18 12 6 4 3 3 3 4 3 2 4 4 5 2 4 4 3 1 3 2 2 5 8 9 8 9 8 6 5 5 5 6
6 7 8 8 8 8 8 7 7 10 12 8 3 2 5 7 7 4 2 1 3 3 1 2 3 6 10 13 10 7 10 10 9 10 7 5 10 16 14 10 7 3 1 2 3 3 5 4 4 5 10 17 22 24 22 17 15 15 10 6 3 4 4 2 2 3 4 2 3 4 2 2 2 2 5 8 9 11 12 11 11 9 8 8 8 7 7
6 7 7 8 8 7 8 7 6 8 11 8 2 3 6 8 8 6 3 1 2 4 2 4 8 12 15 15 10 8 11 14 14 16 13 9 10 12 11 9 6 4 3 4 4 5 4 3 3 3 4 8 13 16 16 13 14 17 14 7 5 5 3 2 3 3 3 2 3 2 3 3 3 3 4 7 6 6 8 9 10 9 6 6 7 7 9
7 7 8 8 8 7 7 7 6 7 9 7 4 4 6 8 8 8 6 2 1 5 3 4 7 11 13 11 8 8 10 11 12 12 12 11 10 9 9 9 6 4 3 4 5 6 3 2 4 3 4 5 5 5 6 8 10 12 12 9 5 5 4 2 3 3 3 3 3 3 4 3 2 1 1 2 2 2 1 4 5 7 8 5 6 8 10
7 7 8 8 7 8 7 6 6 7 8 7 5 5 7 8 8 8 7 3 1 6 10 5 2 6 10 8 7 6 4 5 6 6 6 8 9 7 6 6 4 3 4 3 4 4 3 3 3 2 3 3 2 1 2 3 5 8 9 8 6 5 4 4 3 2 2 4 4 3 3 2 2 1 2 4 7 6 2 3 3 4 8 7 5 7 10
7 7 8 8 8 7 6 6 7 8 9 7 5 5 7 8 10 9 9 5 1 4 9 7 8 12 11 8 8 7 3 1 2 3 4 3 4 7 7 6 5 4 5 4 4 4 4 3 3 2 1 1 1 1 2 2 3 7 8 9 9 8 4 4 5 3 2 4 3 2 1 1 1 1 4 7 9 7 3 1 2 1 6 6 4 5 7
7 8 8 8 8 7 6 6 7 8 8 7 7 8 8 10 12 10 8 5 5 7 11 11 15 16 10 5 6 4 2 1 2 3 1 2 2 6 7 7 8 8 7 4 3 4 4 3 3 3 1 0 2 2 1 2 2 6 7 8 9 7 5 4 4 3 3 4 3 1 1 0 1 2 5 8 8 4 0 1 2 1 4 4 2 4 5
7 8 9 8 8 7 7 7 7 8 8 8 9 11 10 11 12 10 9 8 7 10 16 15 16 15 10 5 4 4 3 2 2 2 1 1 1 4 5 4 6 7 6 4 3 3 4 2 2 3 1 2 2 3 1 1 1 3 3 4 5 4 3 3 4 4 4 4 3 1 1 1 1 4 6 6 4 1 2 1 2 4 5 4 3 4 5
8 9 9 9 8 7 7 8 8 8 8 9 11 12 12 11 11 12 17 19 15 13 16 17 16 15 12 11 10 9 7 7 5 3 2 3 3 4 6 6 5 4 4 4 3 3 4 2 1 4 2 3 2 3 2 2 1 1 2 2 2 2 3 2 2 2 2 3 3 2 1 0 3 4 3 2 1 2 2 3 6 8 9 7 8 11 11
8 9 9 9 8 8 8 9 9 8 9 12 14 15 14 13 14 16 18 22 22 19 18 17 16 15 14 13 13 12 10 10 8 4 4 1 1 3 6 5 3 3 4 4 2 1 2 2 0 2 2 1 1 3 3 2 2 1 1 2 1 0 1 1 1 1 2 3 3 2 2 3 7 4 2 3 2 5 10 12 11 11 13 14 15 17 19
8 9 9 9 9 9 8 9 9 9 11 14 16 17 17 15 15 15 13 15 18 17 15 15 15 16 16 15 14 14 14 12 10 6 5 3 4 4 3 2 1 1 2 3 2 1 1 3 1 2 3 1 1 3 3 3 2 2 2 3 1 1 0 2 1 1 1 3 2 2 2 6 7 4 4 5 8 14 18 18 16 14 15 17 18 18 20
8 8 9 10 9 9 8 9 9 9 11 14 14 15 16 15 15 13 11 13 18 16 13 15 17 17 18 16 14 14 14 13 13 12 11 10 10 8 6 3 3 3 2 3 3 1 1 2 2 2 3 2 2 3 3 2 1 2 2 3 2 2 4 5 3 2 4 4 4 7 10 13 15 17 16 14 15 17 19 21 20 16 16 18 18 18 19
7 8 9 9 9 9 9 9 9 9 11 13 13 14 15 16 16 15 14 17 20 17 14 14 15 16 18 18 16 15 14 13 13 12 13 15 12 8 7 7 6 4 5 7 7 5 3 3 3 3 3 2 3 4 4 4 2 1 2 3 3 4 7 7 5 5 9 10 10 12 14 16 19 20 19 18 18 18 20 22 20 17 17 17 17 17 17
7 7 8 9 8 9 9 10 10 9 10 11 12 13 16 16 16 16 16 17 17 14 12 12 13 13 13 15 16 16 16 15 13 11 12 13 10 7 7 8 6 7 11 13 12 11 8 5 3 4 4 2 3 3 3 4 2 1 3 3 1 3 6 6 3 3 5 6 7 9 13 16 19 20 19 19 18 18 19 19 18 17 16 15 15 16 16
6 6 7 8 8 8 9 10 10 10 10 11 11 12 13 14 14 14 14 13 13 11 7 7 12 13 10 11 13 15 15 15 14 12 11 13 13 11 9 8 8 9 11 12 13 14 11 6 4 5 4 3 3 3 2 3 3 2 2 1 0 3 7 6 3 4 6 6 8 12 15 16 18 20 20 20 19 18 17 16 16 15 14 14 14 14 14
6 6 6 7 8 8 9 11 11 11 10 10 10 10 11 11 10 9 11 13 14 11 5 4 10 12 11 12 13 12 12 14 15 14 13 13 14 14 14 15 16 16 16 17 19 20 15 6 3 3 3 3 4 3 2 3 4 3 2 1 4 7 6 4 5 7 7 8 12 15 14 12 12 17 20 22 22 22 19 17 16 16 15 15 14 13 14
6 6 6 7 8 9 9 11 13 13 12 11 11 10 10 10 10 11 15 15 11 7 3 4 10 13 13 14 13 11 13 15 15 15 13 13 14 17 20 23 25 25 24 24 23 21 15 8 5 5 5 8 9 6 5 5 5 3 3 4 8 9 5 5 8 7 4 6 13 14 10 6 9 16 21 23 23 23 21 20 20 19 18 17 16 15 14
5 5 5 7 9 10 10 11 13 14 14 13 12 11 11 12 11 13 14 10 6 7 8 9 12 13 12 13 13 11 11 12 13 14 14 13 14 16 20 24 27 28 27 23 17 13 9 6 6 7 9 11 10 6 6 7 6 3 3 4 8 10 8 6 6 4 7 15 20 17 14 14 17 21 23 23 22 22 22 21 21 20 19 18 17 16 14
6 5 6 8 9 10 9 10 11 12 13 12 11 11 12 13 12 11 11 9 12 17 17 13 11 9 8 9 11 11 11 11 14 17 17 16 15 16 20 24 26 26 27 24 18 11 9 9 10 10 9 9 7 4 4 5 3 2 4 9 13 13 13 13 11 11 15 21 22 19 20 21 21 22 23 21 20 20 19 19 19 18 18 17 16 15 14
7 7 7 8 10 10 9 8 8 8 9 11 10 10 10 12 12 12 13 13 16 17 15 10 7 6 8 11 13 15 15 15 16 18 19 19 20 21 22 24 26 25 25 22 17 12 10 10 12 11 10 10 8 3 2 4 2 2 8 18 21 18 18 20 20 18 19 21 20 21 23 24 22 21 21 19 17 17 17 17 17 16 16 16 15 14 13
7 8 8 9 10 9 8 8 6 5 7 10 9 7 6 6 9 12 14 13 14 15 13 10 6 5 8 11 13 15 17 17 17 19 20 19 20 21 22 23 24 23 22 21 17 12 8 8 9 9 10 13 11 4 2 5 3 2 10 22 25 23 24 25 24 24 23 23 22 21 22 23 23 20 18 17 15 14 14 14 14 13 12 12 12 11 11
8 9 9 10 9 9 9 8 6 5 5 8 8 7 7 7 8 11 13 12 12 14 13 9 5 2 3 5 8 11 15 18 20 21 20 20 20 21 22 23 23 22 21 19 14 9 8 12 13 11 12 17 14 5 3 5 4 5 15 26 26 25 26 26 24 24 24 24 24 22 21 23 23 18 15 15 14 13 13 13 12 11 10 10 10 9 8
8 8 9 9 9 9 9 8 6 6 6 7 9 10 10 9 9 11 12 12 12 13 11 6 3 1 1 3 5 8 10 13 16 17 16 16 17 18 19 19 19 18 17 13 9 6 9 16 16 12 12 15 13 5 3 4 8 15 23 27 25 23 23 22 21 20 20 21 21 20 19 20 20 16 14 14 14 13 13 13 12 12 11 9 8 8 8
7 8 8 9 9 9 9 9 6 5 6 7 9 11 10 8 8 9 10 11 11 10 7 4 3 2 1 1 3 5 7 9 12 11 10 11 14 15 15 13 13 13 12 12 11 10 10 13 14 10 9 11 11 7 2 6 14 23 26 24 23 23 22 21 20 20 19 19 18 17 16 17 17 16 15 14 13 14 13 12 11 13 13 11 9 8 7
7 8 8 9 10 10 10 8 6 5 5 6 7 10 10 8 7 7 6 8 8 5 3 4 4 3 2 2 1 2 5 7 10 9 7 9 13 13 11 9 8 7 8 11 12 8 7 10 12 9 5 5 6 3 3 9 17 23 23 21 21 22 21 19 20 20 19 18 18 17 16 16 16 15 14 12 11 12 12 12 12 13 12 11 9 7 6
7 8 9 10 11 10 9 7 4 4 5 4 6 9 10 7 6 6 5 6 6 4 4 5 4 3 3 3 2 3 5 6 8 8 8 8 9 10 9 7 5 5 7 8 6 5 6 9 9 5 2 3 3 5 12 18 21 22 22 20 20 21 22 21 21 22 21 19 18 17 16 15 15 14 12 11 10 10 12 14 14 12 11 10 9 8 7
9 11 11 12 10 9 8 6 3 3 4 4 6 10 9 6 5 5 4 5 5 4 5 6 3 3 4 4 3 5 6 5 5 6 4 3 5 7 8 6 3 3 5 5 3 4 8 8 6 3 2 2 9 16 21 23 22 22 22 22 22 22 21 20 20 21 21 19 17 16 15 14 13 12 11 12 11 11 12 14 12 9 8 7 6 4 4
12 12 11 9 8 7 6 4 2 3 5 7 9 9 7 4 3 3 2 3 3 3 4 4 3 5 6 5 4 5 4 3 3 3 2 2 4 4 4 4 2 2 3 2 2 6 8 6 4 3 2 4 14 23 23 21 20 20 21 23 22 20 17 16 16 18 20 20 18 17 16 14 12 13 13 12 10 9 10 10 8 6 7 7 5 3 4
13 11 8 7 6 5 3 2 2 4 7 8 8 6 3 2 2 1 1 2 2 1 2 3 5 8 9 6 4 4 6 5 4 3 1 2 2 1 2 2 2 2 3 1 2 5 4 2 2 3 2 2 11 19 20 19 19 21 22 22 19 17 16 16 15 16 17 18 18 17 15 13 13 14 14 12 10 9 9 9 8 8 7 6 5 4 5
12 9 7 6 5 4 4 5 5 5 5 5 5 4 2 1 0 1 0 1 1 1 1 3 6 10 13 12 7 5 5 6 5 4 3 2 2 2 3 2 2 3 3 0 1 4 4 2 2 3 0 2 10 19 22 21 22 23 23 20 17 16 16 15 15 15 17 17 17 16 14 13 13 13 11 9 8 8 8 9 10 10 8 6 6 5 5
9 8 7 5 4 5 7 7 6 3 3 3 3 2 1 0 1 1 1 1 0 1 2 5 6 6 9 12 9 6 5 6 7 7 6 2 2 3 3 1 2 3 1 2 3 5 4 2 2 1 4 9 17 23 24 22 21 22 21 19 18 17 16 15 16 18 19 19 19 17 14 13 12 11 10 9 7 7 8 10 11 9 7 5 5 4 4
8 8 7 5 7 8 8 6 4 2 2 2 1 0 0 0 1 1 1 1 1 0 2 4 6 8 10 11 9 7 6 6 6 6 4 1 1 3 2 0 1 2 1 4 4 4 3 3 3 2 7 15 23 25 25 24 23 22 21 19 18 17 16 17 17 18 18 18 18 16 13 12 10 9 8 8 6 6 6 8 9 8 6 5 4 4 3
10 10 7 6 7 7 4 1 1 1 1 2 1 1 1 1 0 0 1 1 1 3 4 7 10 11 11 9 8 7 7 6 4 4 3 2 2 2 3 2 1 2 3 4 4 3 2 3 3 7 14 21 24 24 24 24 23 22 21 19 16 15 16 17 17 16 16 15 14 13 11 9 8 7 6 5 5 6 7 7 7 7 6 5 4 3 1
11 9 7 5 4 3 2 0 1 1 0 0 1 2 1 1 1 1 1 1 3 5 8 11 12 10 6 5 6 6 5 4 4 4 3 2 2 2 2 1 1 2 3 3 2 1 2 2 5 14 23 25 24 24 24 23 21 20 19 18 16 15 15 15 14 13 12 12 12 11 10 8 7 7 6 5 5 6 6 6 6 5 3 2 1 1 2
8 6 5 3 1 1 1 0 1 0 1 2 2 3 3 3 3 4 4 5 8 10 11 13 15 13 8 6 5 3 2 3 3 2 1 2 2 2 1 2 1 2 3 2 1 3 2 2 6 19 27 27 26 26 25 22 20 18 17 17 17 16 15 13 11 10 11 12 11 10 9 8 7 6 5 4 4 3 3 4 4 2 1 2 3 4 4
6 5 4 2 1 1 1 1 0 1 2 3 5 6 6 7 8 7 6 8 11 14 15 16 17 14 9 5 4 3 2 4 3 1 1 3 2 0 2 2 2 2 1 1 2 3 3 5 12 24 31 31 30 28 24 22 20 18 17 18 17 15 14 12 11 11 12 12 11 9 8 7 6 4 4 4 4 3 2 2 2 2 4 5 6 5 4
6 5 4 2 0 1 1 2 4 4 4 6 9 10 10 10 10 9 8 10 14 17 18 18 17 14 9 6 4 3 2 3 2 1 2 3 1 1 1 2 1 1 2 3 4 4 4 8 19 31 34 33 30 28 25 24 22 20 19 18 17 16 15 14 13 13 13 11 9 9 8 6 5 5 5 4 3 3 2 2 2 3 3 4 4 4 2
6 5 2 1 1 2 2 4 6 7 9 10 10 10 11 12 13 11 9 13 17 20 20 18 14 10 6 4 4 2 1 3 3 1 1 2 2 1 2 1 1 2 2 4 4 4 7 17 28 35 35 33 31 29 28 27 24 21 20 18 16 16 14 12 11 12 12 10 9 9 7 5 5 5 4 2 3 3 2 1 2 2 1 2 2 3 2
4 4 3 2 2 3 5 6 5 7 12 14 14 12 11 12 12 11 14 19 21 21 20 17 12 7 2 2 3 2 2 2 2 0 2 2 2 0 1 2 2 3 3 3 3 6 16 28 35 35 35 34 32 31 30 27 24 22 21 19 17 15 13 12 11 10 9 7 8 9 7 4 3 4 3 2 1 1 1 1 2 2 2 2 2 3 4
4 4 4 4 3 3 3 3 2 4 9 12 10 7 9 14 17 17 20 24 24 20 16 12 8 4 2 2 3 2 1 1 2 2 1 1 1 2 2 2 3 4 5 4 5 14 26 34 35 34 34 34 32 31 29 27 24 23 22 19 17 15 14 13 12 10 7 5 5 6 4 3 3 4 4 1 1 2 1 2 2 2 3 4 5 5 5
3 3 5 7 7 6 5 4 4 5 8 5 9 15 18 20 19 17 20 24 22 16 9 6 4 3 3 2 1 1 1 1 2 2 1 2 2 2 3 4 5 5 5 7 13 24 33 36 35 35 35 34 32 30 28 25 24 24 22 20 18 16 13 12 10 9 7 6 5 4 3 3 3 4 3 2 3 5 5 5 5 3 4 5 5 4 4
4 3 5 7 10 11 10 9 9 11 9 8 17 20 19 19 19 17 19 21 17 10 6 5 4 3 2 1 2 2 2 1 1 1 2 2 3 3 4 5 6 7 10 16 23 30 35 36 36 36 35 33 31 29 27 25 25 24 21 18 16 13 10 10 8 7 6 7 7 5 4 4 4 4 4 3 3 3 2 2 1 2 2 2 3 3 3
Wind_Direction
340 334 340 341 329 327 340 360 6 12 56 122 133 97 78 72 57 140 158 162 154 146 114 319 231 254 281 279 285 282 276 306 3 8 13 8 9 47 43 64 67 30 357 14 53 78 65 47 79 108 87 54 30 53 76 78 64 69 81 292 337 64 78 82 21 303 29 50 54 47 31 48 64 37 10 30 32 96 129 163 168 84 29 50 83 86 196
339 329 330 329 327 336 354 5 4 24 79 143 149 106 104 140 85 144 164 176 177 152 119 182 233 282 270 272 280 273 263 24 33 15 9 358 6 57 30 36 65 37 20 37 45 60 81 80 77 98 111 52 50 67 75 76 65 63 132 229 297 41 82 95 69 8 3 356 356 14 10 22 54 16 358 10 10 37 77 91 82 68 17 119 117 136 193
334 327 328 329 339 354 0 2 359 29 109 153 151 109 113 138 94 144 171 185 193 213 246 197 228 273 267 270 271 270 261 68 47 34 20 10 29 89 29 36 80 70 56 54 41 41 72 109 60 58 80 66 62 64 64 68 71 61 65 109 128 95 97 114 108 125 151 136 254 271 315 353 29 26 16 15 11 19 40 70 69 83 243 83 107 164 146
328 326 332 335 351 4 4 5 358 29 136 150 137 118 114 104 103 136 173 188 203 246 267 259 243 241 261 273 274 325 50 64 35 29 27 16 28 73 46 43 65 58 62 71 47 36 49 68 69 65 71 67 59 64 64 61 58 54 45 43 79 93 56 73 102 114 156 161 186 213 147 69 60 46 30 22 9 16 66 96 85 147 137 45 56 141 116
328 328 338 349 8 8 7 8 360 79 141 151 140 128 122 104 105 115 140 199 223 260 267 259 233 237 282 282 281 356 29 61 24 22 30 21 25 47 39 37 47 43 68 86 59 29 39 53 60 53 62 86 70 64 67 60 57 60 38 22 54 95 46 27 74 78 90 104 93 81 82 74 71 65 47 35 29 37 60 64 309 156 119 79 97 110 100
335 345 0 11 19 10 10 11 14 114 140 150 145 127 106 82 329 9 80 207 221 246 265 261 245 252 264 272 327 12 39 75 38 357 21 26 29 43 24 21 37 57 89 104 84 39 42 38 34 24 41 73 63 43 42 44 61 71 39 18 68 110 73 26 80 80 83 87 84 81 82 74 61 61 56 47 47 52 58 46 18 80 110 134 122 100 93
342 7 24 23 22 17 16 19 60 128 138 141 142 143 43 31 337 353 28 304 233 236 274 279 268 257 247 277 15 27 68 87 91 359 35 22 26 51 53 28 39 50 70 94 87 56 78 55 23 33 40 49 75 51 10 3 39 62 57 24 52 97 80 82 93 87 80 85 89 85 83 77 57 47 50 57 57 53 49 45 56 75 85 99 101 94 84
350 30 37 27 26 26 30 53 106 131 129 125 137 153 30 28 356 338 350 322 279 288 295 287 9 328 305 53 30 56 85 78 61 39 62 71 21 44 69 57 50 52 59 75 72 56 122 120 67 71 83 54 60 106 170 288 8 30 53 7 16 65 104 108 93 85 70 84 92 88 86 83 65 39 31 49 58 47 36 32 48 73 89 92 91 92 84
11 46 41 34 35 36 47 91 125 133 124 128 147 160 6 7 353 346 349 320 309 320 308 257 64 1 344 84 48 38 63 84 89 51 55 84 91 81 87 72 59 54 52 61 66 54 95 105 79 89 106 70 28 323 182 160 95 29 42 19 22 65 74 46 80 89 82 108 109 105 99 87 70 42 27 38 53 52 43 34 26 48 111 112 93 88 103
50 60 48 42 46 48 59 103 130 125 124 146 165 156 7 17 34 49 57 324 296 291 275 121 96 66 269 85 58 49 52 63 82 70 42 63 87 105 109 88 69 57 49 50 49 39 51 63 64 76 71 39 42 59 67 75 90 123 102 49 31 79 89 74 91 99 129 173 141 120 103 83 61 17 12 44 74 78 65 40 29 32 70 109 96 103 128
72 63 54 47 51 58 65 97 131 125 124 151 188 20 48 49 38 44 68 15 289 265 190 130 107 85 63 73 69 64 61 49 59 93 55 34 72 94 104 100 89 71 54 57 56 49 56 57 56 72 69 54 59 66 63 54 48 61 108 97 20 48 90 109 102 104 150 195 160 73 63 76 45 324 350 102 107 90 77 48 38 49 63 82 98 113 120
78 63 60 54 53 61 67 87 125 125 121 144 200 33 53 44 38 37 71 49 302 311 18 134 126 109 88 79 73 67 73 69 68 84 84 39 63 80 84 89 97 95 76 99 111 119 110 78 41 59 73 68 65 61 57 48 32 34 64 107 100 67 77 85 74 102 140 151 61 60 77 116 109 48 74 100 104 93 84 63 43 50 75 97 105 111 119
79 65 64 58 56 61 65 76 103 120 125 140 152 66 51 42 45 36 24 84 310 319 1 70 84 99 97 87 83 79 81 83 78 73 73 67 63 68 72 81 99 112 110 106 107 113 110 66 23 17 36 57 62 54 51 50 34 28 33 50 92 110 107 81 69 84 104 62 38 95 136 130 120 93 85 103 103 88 80 61 36 28 49 96 115 117 120
76 67 64 60 58 59 59 68 87 109 125 135 126 86 59 45 47 34 23 53 308 326 13 59 62 80 91 92 94 87 73 75 78 73 73 81 83 80 82 85 86 75 70 76 69 72 82 51 39 26 357 15 45 38 34 43 39 33 22 14 50 109 117 90 65 61 96 96 67 95 124 144 141 91 38 54 32 358 80 87 50 19 21 58 115 127 134
75 68 64 60 57 56 59 67 77 94 109 115 110 88 61 43 38 30 19 12 316 10 22 26 43 73 80 79 77 82 64 49 70 80 79 90 101 95 71 73 93 73 49 58 63 61 73 80 71 46 9 34 63 345 343 15 20 26 25 15 28 68 104 132 108 55 86 113 106 115 152 188 155 115 324 346 357 349 10 108 99 23 16 37 98 130 148
77 69 63 61 58 58 62 67 77 92 98 97 92 79 63 42 34 34 24 15 98 29 11 27 80 77 71 71 70 84 110 56 63 72 33 34 102 100 75 84 111 82 39 49 75 68 63 79 104 108 73 107 173 312 8 23 338 346 6 21 31 37 48 97 98 84 110 117 116 141 191 219 172 265 303 334 351 349 353 94 142 58 19 31 78 116 141
77 68 63 62 60 62 70 73 84 92 89 92 93 81 64 42 34 36 35 42 82 56 32 59 87 75 59 58 57 54 71 76 85 95 61 276 154 108 92 91 83 53 32 47 64 56 66 76 86 93 66 346 125 106 36 57 19 335 342 7 22 19 12 44 78 95 108 102 105 108 97 287 286 289 302 327 346 356 69 182 179 94 30 30 84 115 130
77 68 65 64 63 69 80 85 90 91 88 93 92 76 58 40 36 45 60 72 79 49 42 65 91 83 66 71 70 46 33 39 52 87 98 300 37 106 114 94 62 42 41 67 73 60 78 84 82 102 91 331 63 100 101 82 55 322 333 9 18 14 7 43 95 97 81 93 110 97 87 141 307 307 305 323 353 102 168 209 161 105 68 56 94 119 137
77 71 66 66 72 80 88 93 91 89 91 94 86 73 59 53 66 82 82 81 81 65 54 66 84 87 84 86 84 78 70 64 63 80 83 12 3 112 111 79 60 48 43 61 83 85 86 77 91 114 95 357 35 98 92 78 44 318 36 50 23 3 1 17 77 89 81 101 105 95 120 44 329 314 311 358 36 188 153 110 120 112 97 91 94 105 121
79 73 70 71 81 88 93 96 92 88 95 94 83 72 67 74 93 103 98 91 85 73 62 65 73 78 81 79 77 78 73 63 60 89 132 126 349 99 94 61 43 48 42 53 68 73 98 107 35 101 102 71 111 113 99 84 65 23 84 94 79 93 81 74 85 87 91 84 74 118 163 325 330 308 286 358 21 147 124 109 108 107 105 104 101 104 113
83 76 76 78 86 93 96 93 88 91 98 95 85 77 76 81 91 95 98 100 92 79 69 71 73 73 73 69 67 70 70 64 62 84 117 96 42 74 116 217 258 80 86 106 93 52 131 137 110 81 102 104 85 100 126 129 77 35 95 124 108 318 260 162 206 269 101 96 76 119 98 19 21 86 111 73 102 131 129 118 112 111 110 109 107 108 114
89 82 82 84 89 97 98 89 85 94 101 96 88 84 83 84 88 93 99 100 97 94 89 81 76 74 74 70 64 63 66 71 79 90 100 92 76 84 111 122 92 95 141 139 114 105 126 114 105 98 92 80 72 79 91 118 81 4 27 68 53 42 90 100 89 64 84 95 99 96 82 66 72 92 102 105 116 128 127 121 119 119 119 117 117 119 122
96 88 87 89 93 98 99 90 82 91 103 100 90 91 97 100 101 104 107 103 99 100 98 90 84 80 75 72 70 67 67 76 86 97 108 105 91 79 82 75 66 78 101 106 113 127 130 115 116 113 97 95 104 89 67 73 87 28 35 67 98 112 102 89 85 99 91 83 90 100 94 86 86 92 99 106 112 117 119 119 121 124 127 129 129 129 129
104 95 91 91 97 103 101 90 81 89 106 107 100 101 107 109 108 108 108 106 102 98 91 83 80 77 73 72 74 72 69 73 80 90 107 112 106 86 69 63 68 94 103 106 113 116 112 106 94 92 93 90 93 93 79 83 95 68 71 85 84 84 84 79 97 138 105 83 96 108 105 103 103 102 103 106 108 113 119 123 127 130 132 133 132 130 129
111 103 98 95 102 111 104 90 87 95 102 104 109 117 115 112 112 113 114 114 108 102 96 79 73 75 80 80 77 73 71 71 73 79 96 107 104 95 86 83 95 110 112 116 119 111 99 90 85 92 90 69 73 89 93 105 138 138 101 101 183 106 99 89 78 92 96 106 120 115 109 113 117 116 118 119 120 123 126 125 128 131 131 131 129 127 126
120 114 107 101 110 118 107 93 93 98 99 102 109 116 113 110 113 118 122 121 111 101 100 89 79 83 91 88 77 74 77 75 70 73 87 95 93 94 102 106 108 113 112 110 109 101 89 76 80 88 67 55 81 101 110 112 121 111 80 97 136 129 121 102 103 107 102 111 125 118 104 103 118 125 126 126 124 126 127 127 126 126 127 126 123 118 117
132 124 116 110 119 123 108 97 99 102 102 104 106 105 105 109 117 127 130 127 114 96 92 88 85 88 92 87 81 82 85 80 71 70 79 91 98 103 109 111 112 112 108 102 98 93 86 77 76 81 90 95 89 78 79 95 99 87 64 84 104 111 111 111 120 123 114 136 150 143 123 122 148 141 132 127 124 125 128 129 128 126 124 122 119 118 119
146 138 127 123 128 126 110 102 107 110 107 105 106 106 103 98 106 128 140 141 125 120 122 107 95 94 93 87 84 85 84 80 78 78 84 96 108 111 112 112 111 109 105 99 93 87 83 88 95 98 104 105 94 65 61 79 78 57 48 87 109 124 143 147 134 129 146 159 163 153 133 141 155 147 136 132 129 127 128 129 130 130 129 125 121 119 120
160 153 144 137 135 132 119 111 115 118 116 114 115 114 104 94 98 123 144 144 127 118 111 99 92 90 88 87 83 79 83 91 93 90 91 98 108 114 114 110 107 104 103 101 98 91 87 95 102 105 109 113 107 75 58 69 56 34 86 112 123 132 140 139 131 126 141 155 158 144 133 142 150 145 138 135 131 129 129 130 130 130 129 127 124 119 118
162 159 154 147 144 139 129 125 131 133 131 133 133 122 106 96 98 114 130 135 131 122 109 98 95 88 86 89 85 79 88 101 100 94 95 100 105 109 111 108 106 104 102 100 98 96 92 93 95 98 105 111 107 89 91 99 63 30 101 114 120 124 126 128 129 130 139 148 146 136 136 140 141 140 140 138 133 131 133 134 136 136 136 136 133 128 125
157 158 153 149 151 151 143 137 136 132 141 152 151 131 106 96 98 111 124 133 134 126 111 96 92 90 89 91 88 84 90 99 99 97 99 101 102 106 109 106 102 101 98 94 90 88 86 91 92 87 92 100 99 87 110 109 84 38 108 113 117 119 119 119 121 125 132 140 140 139 143 147 148 151 156 155 149 143 140 140 142 142 142 141 135 131 130
145 153 154 152 156 159 151 140 120 94 119 153 157 137 121 113 103 112 127 140 142 135 122 99 79 82 82 81 88 92 96 102 103 101 100 99 98 101 104 99 93 92 94 90 81 71 82 94 92 84 89 100 102 87 62 92 109 140 125 120 121 124 123 121 119 120 125 133 136 139 149 157 159 161 163 161 160 155 145 139 134 131 135 138 134 134 139
131 141 149 155 162 160 148 134 108 80 94 130 146 142 133 120 106 115 132 142 142 138 129 104 68 91 95 78 97 104 103 104 105 100 96 97 96 95 97 95 89 87 90 87 76 79 98 100 95 88 92 101 103 89 62 107 136 138 131 129 131 132 130 127 126 126 129 132 131 131 138 147 150 149 149 155 164 163 152 144 142 147 156 160 159 160 161
128 129 135 148 157 155 144 130 110 88 91 110 132 143 140 123 105 112 132 144 141 133 124 106 88 93 64 56 98 108 107 109 110 102 93 97 102 101 97 92 84 79 84 92 95 97 100 101 99 94 91 97 98 92 99 155 150 142 138 138 139 138 136 135 138 140 140 137 131 127 130 138 142 144 147 154 164 167 163 162 171 180 185 186 185 185 185
136 130 128 135 142 145 143 134 118 107 106 106 124 141 143 129 105 101 127 150 146 129 114 119 114 104 90 73 88 128 125 117 118 117 109 108 113 113 106 92 81 83 99 106 103 96 101 110 110 105 97 93 88 87 171 169 155 147 144 143 142 144 146 145 145 144 141 136 134 133 134 141 148 151 152 155 160 164 163 161 165 169 164 149 138 137 148
140 135 127 124 125 131 136 131 118 121 121 112 129 144 147 135 107 90 95 118 118 103 112 125 126 136 135 122 138 161 146 126 120 124 124 118 117 116 111 99 86 95 110 107 94 93 118 125 122 115 90 77 100 155 163 159 154 153 152 150 148 148 148 148 146 144 143 144 146 145 144 146 151 156 157 151 147 151 151 147 146 147 140 128 121 121 121
139 134 126 118 114 117 118 107 96 128 137 133 142 147 146 136 116 103 93 91 89 96 120 129 144 176 156 139 137 146 146 140 129 125 121 114 108 106 106 104 100 100 100 88 70 98 115 117 113 94 60 121 152 156 157 157 159 159 158 155 150 143 139 142 147 150 151 152 155 158 158 155 156 163 159 144 138 144 147 144 146 152 154 151 147 148 144
142 137 128 117 110 109 105 87 83 131 138 137 140 142 140 123 110 114 94 69 68 93 124 135 167 171 145 123 117 137 152 151 125 112 97 95 100 92 86 96 112 109 92 74 89 103 98 88 83 77 52 147 155 156 158 161 163 161 157 154 151 145 142 148 156 158 157 158 162 169 170 167 166 167 159 148 148 158 156 150 154 168 167 157 149 163 180
145 142 135 124 113 104 96 98 137 140 133 130 132 133 120 81 79 68 5 24 54 106 130 151 171 162 145 122 98 128 144 132 107 95 81 83 103 134 112 101 108 99 90 101 144 114 93 36 39 68 39 116 152 158 164 165 163 159 154 151 151 151 154 163 170 169 167 170 175 176 171 163 158 157 156 156 161 163 160 160 167 171 167 152 134 152 177
147 142 137 129 119 116 128 141 145 138 123 114 117 122 106 68 131 223 310 23 21 16 115 149 160 155 147 139 125 119 135 138 130 132 129 109 117 139 121 109 125 108 88 306 168 114 103 77 69 81 229 179 145 147 151 154 157 158 157 154 154 156 161 169 171 164 157 158 161 157 147 139 136 136 140 149 153 147 148 161 166 165 160 144 126 134 151
144 141 140 131 119 124 133 135 131 118 90 80 86 110 128 243 240 197 109 85 318 325 93 126 138 143 141 136 124 112 128 138 133 129 125 104 95 108 101 115 140 102 74 234 170 105 87 87 83 98 200 163 141 137 139 140 144 150 151 148 145 147 152 156 153 147 142 141 140 139 137 134 130 126 128 137 141 137 142 155 161 160 154 140 133 143 157
147 149 148 136 124 123 124 120 106 84 74 69 52 317 243 219 203 159 113 156 191 131 66 111 135 136 130 123 113 107 121 129 126 121 114 88 116 117 103 84 97 80 166 188 146 88 69 107 115 197 186 155 141 139 138 135 134 138 142 142 138 136 139 144 143 141 141 140 138 136 137 135 128 123 126 132 134 133 135 144 154 158 148 130 128 146 163
152 151 143 130 126 125 117 83 51 49 49 51 50 23 331 338 5 166 240 250 159 121 112 124 131 130 125 120 111 105 110 115 111 101 103 127 144 107 71 47 70 124 167 157 113 82 121 143 161 193 177 158 147 146 145 140 136 137 141 146 145 139 138 140 139 138 139 141 141 142 144 141 133 129 132 137 140 138 133 132 141 147 141 133 137 149 163
150 145 134 127 125 121 110 21 34 69 81 116 122 145 191 246 246 194 181 175 152 145 145 145 142 136 129 121 110 98 99 105 94 80 94 133 114 73 75 157 192 147 141 123 82 119 184 201 186 177 170 161 154 153 152 149 146 144 144 149 153 150 143 139 136 134 137 141 144 144 143 140 135 134 139 148 152 145 137 138 145 149 143 139 170 276 297
151 141 129 109 58 91 134 279 322 297 209 218 196 163 163 187 209 202 180 168 163 158 153 150 143 133 119 110 109 101 89 95 88 77 132 125 65 42 140 186 161 103 114 109 115 149 194 265 180 170 169 164 158 156 156 155 154 152 149 148 152 152 148 143 138 135 137 141 144 144 141 140 140 138 139 150 158 156 152 152 156 170 287 321 320 312 295
152 143 124 94 336 220 161 119 310 193 186 201 207 198 191 197 204 200 187 179 175 167 159 152 144 132 117 102 107 112 101 97 90 40 98 98 80 283 183 135 87 77 98 126 168 180 219 221 177 168 167 164 159 158 160 158 154 150 147 146 148 148 145 144 144 144 144 145 146 147 150 154 155 147 138 142 152 171 189 192 211 271 296 309 323 324 294
154 149 126 94 278 245 216 214 228 238 246 238 227 222 217 213 214 215 211 198 181 165 153 146 140 134 125 115 115 122 111 98 83 357 30 87 120 265 38 79 112 168 152 176 206 227 234 194 173 168 166 164 162 162 164 164 162 157 150 146 145 144 142 141 142 146 150 152 150 148 151 156 159 158 155 152 150 153 165 195 253 285 302 321 346 359 336
159 158 152 154 178 187 211 226 241 256 260 253 252 258 254 244 241 239 216 186 170 159 152 145 135 125 115 108 115 118 68 74 83 2 12 90 116 8 28 61 247 251 173 180 207 222 191 176 170 167 167 167 166 165 166 168 170 169 164 159 156 155 155 152 148 147 151 155 156 156 156 151 151 161 168 152 136 145 159 232 281 283 306 343 1 6 352
170 171 195 230 231 222 228 235 250 266 267 269 275 275 255 227 209 192 172 163 159 158 155 147 135 124 113 93 94 84 40 62 107 78 26 67 102 160 132 153 228 253 222 204 216 191 175 171 168 168 169 169 168 167 168 169 171 173 173 171 169 168 170 171 166 159 156 158 162 166 169 170 182 191 183 129 95 154 243 311 288 246 238 271 295 299 291
193 203 230 250 246 238 245 234 214 262 284 286 273 228 168 142 138 147 156 157 154 150 145 134 121 116 117 85 72 57 297 226 129 101 73 122 176 166 146 176 222 228 220 220 198 173 168 167 167 168 168 167 167 168 171 172 171 171 171 169 166 165 167 168 168 166 164 163 166 176 192 217 220 203 185 164 307 269 259 304 303 277 260 265 275 284 289
196 231 251 243 235 251 279 272 239 269 290 261 181 158 137 123 125 143 156 155 150 144 138 131 115 90 73 70 91 140 185 154 118 117 175 212 177 136 157 209 223 216 200 186 172 165 165 167 168 167 165 165 168 171 171 168 167 166 164 161 159 158 159 160 160 160 164 172 185 201 210 207 195 181 179 213 245 247 262 288 295 274 249 257 272 294 312
208 245 265 255 252 262 271 269 270 282 274 202 166 151 135 124 128 141 151 154 153 148 134 127 116 92 83 155 165 138 113 107 124 156 211 214 187 175 192 209 209 190 169 160 158 160 163 166 166 165 164 165 167 166 163 161 162 163 162 160 159 160 164 167 167 167 175 185 191 194 194 187 180 181 191 214 229 229 260 312 340 163 200 262 304 343 1